Location: Marcé
(47.5801°N, 0.3280°W)
Time: 07:45:41
(UTC+01:00)

Vanguard 1 - Pass Details

Date: 08 December 2021
Orbit: 652 x 3830 km, 34.2° (Epoch: 16 January)

Event Time Altitude Azimuth Distance (km) Brightness Sun altitude
Exits shadow 03:21:55 49° 158° (SSE) 4,143 12.9 -51.3°
Drops below altitude 10° 03:35:11 10° 119° (ESE) 5,587 14.1 -49.3°
Sets 03:38:51 0° 115° (ESE) 6,253 14.6 -48.7°
